x

8461490 - New London, Ct (nlnc3) Weather Station

2:30 - Fri 29th May 2015 All times are EDT. -4 hours from GMT.

  • Wind
    5mph, 6mph gusts
  • Sea Temp 62°f
  • Aire Temp 63°f
  • Sea Pressure 1023mb
  • 8461490 - New London, Ct
  • 8461490 - New London, Ct

More Historic Weather Station data

Upgrade to MSW Pro to gain access to the past 30 days of data for over 8000 Wavebouys and Weather Stations around the globe.

Join Pro

Comparision Forecast

View Surf forecast
   
vie 05/29 2:30 5 6 mph 1023mb 62f 63f
2:24 3 6 mph 1023mb 62f 63f
2:18 3 6 mph 1022.9mb 62f -
2:12 3
mph
1022.9mb 62f -
2:06 2 5 mph 1022.8mb 62f -
2:00 2 3 mph 1022.9mb 62f 63f
1:54 2
mph
1022.7mb 62f 63f
1:48  -  3 mph 1022.7mb 62f 63f
1:42  -  1 mph 1022.6mb 62f 63f
1:36 1
mph
1022.7mb 62f 63f
1:30 1 2 mph 1022.7mb 62f 63f
1:24  -  1 mph 1022.8mb 62f 63f
1:18 1
mph
1022.8mb 62f 64f
1:12  -  1 mph 1022.8mb 62f 64f
1:06  -  mph 1022.8mb 62f 64f
1:00  -  mph 1022.8mb 61f 64f
12:54  -  1 mph 1022.8mb 60f 64f
12:48  -  1 mph 1022.7mb 60f 65f
12:42 1
mph
1022.7mb 60f 65f
12:36 2
mph
1022.7mb 60f 64f
12:30 2
mph
1022.7mb 60f 65f
12:24 2 3 mph 1022.6mb 61f 65f
12:18 1 3 mph 1022.6mb 61f 65f
12:12  -  1 mph 1022.6mb 61f 65f
12:06 1 2 mph 1022.6mb 61f 65f
12:00 2 3 mph 1022.6mb 61f 65f
jue 05/28 11:54 2 3 mph 1022.5mb 60f 65f
11:48 1 3 mph 1022.5mb 59f 65f
11:42 1 2 mph 1022.6mb 59f 64f
11:36 2
mph
1022.6mb 59f 64f
11:30 1 2 mph 1022.5mb 59f 65f
11:24  -  1 mph 1022.5mb 59f 65f
11:18  -  mph 1022.5mb 59f 65f
11:12  -  mph 1022.4mb 58f 65f
11:06  -  mph 1022.3mb 58f 65f
11:00  -  mph 1022.2mb 58f 65f
10:54  -  1 mph 1022.2mb 57f 65f
10:48 1
mph
1022.2mb 57f 65f
10:42  -  1 mph 1022.2mb 57f 65f
10:36  -  2 mph 1022.1mb 56f 66f
10:30  -  2 mph 1022.1mb 56f 66f
10:24 2 3 mph 1022mb 56f 66f
10:18 3
mph
1021.9mb 56f 66f
10:12 2 5 mph 1021.9mb 56f 66f
10:06 3 5 mph 1021.9mb 55f 66f
10:00 2 5 mph 1021.8mb 55f 65f
9:54  -  2 mph 1021.8mb 55f 65f
9:48  -  mph 1021.6mb 57f 65f
9:42  -  mph 1021.6mb 56f 65f
9:36  -  2 mph 1021.5mb 56f 65f
9:30 3
mph
1021.4mb 57f 65f
9:24 5
mph
1021.3mb 58f 64f
9:18 1 5 mph 1021.1mb 57f 65f
9:12 1
mph
1020.9mb 57f 65f
9:06 2
mph
1021mb 57f 65f
9:00 3
mph
1020.9mb 56f 65f
8:54 5 6 mph 1020.9mb 55f 65f
8:48 7 8 mph 1020.7mb 55f 65f
8:42 6 8 mph 1020.6mb 54f 65f
8:36 6 8 mph 1020.5mb 54f 65f
8:30 7 8 mph 1020.4mb 54f 65f
8:24 7 9 mph 1020.3mb 54f 65f
8:18 7 8 mph 1020.3mb 54f 65f
8:12 8
mph
1020.4mb 54f 65f
8:06 8 9 mph 1020.4mb 54f 66f
8:00 8
mph
1020.4mb 54f 66f
7:54 7 8 mph 1020.4mb 55f 66f
7:48 8 9 mph 1020.4mb 54f 67f
7:42 9
mph
1020.3mb 54f 66f
7:36 9
mph
1020.5mb 54f 66f
7:30 9
mph
1020.3mb 54f 67f
7:24 10 11 mph 1020.2mb 54f 68f
7:18 10 11 mph 1020.1mb 55f 67f
7:12 3 9 mph 1020.3mb 55f 68f
7:06 3 7 mph 1020.5mb 55f 69f
7:00 7 10 mph 1020.4mb 54f 69f
6:54 9 11 mph 1020.2mb 55f 69f
6:48 5 10 mph 1020.3mb 56f 69f
6:42 9 11 mph 1020.5mb 57f 70f
6:36 9 14 mph 1020.2mb 55f 69f
6:30 9 13 mph 1019.8mb 56f 69f
6:24 7 11 mph 1019.9mb 55f 70f
6:18 7 13 mph 1020mb 56f 70f
6:12 11 15 mph 1019.9mb 55f 70f
6:06 8 14 mph 1019.7mb 57f 70f
6:00 9 11 mph 1019.8mb 56f 71f
5:54 7 11 mph 1019.7mb 57f 71f
5:48 6 9 mph 1019.7mb 58f 71f
5:42 8 11 mph 1019.7mb 57f 71f
5:36 8 9 mph 1019.7mb 57f 71f
5:30 8 15 mph 1019.4mb 56f 71f
5:24 10 13 mph 1019.3mb 56f 70f
5:18 9 13 mph 1019.3mb 56f 71f
5:12 11 14 mph 1019.4mb 56f 68f
5:06 9 13 mph 1019.2mb 56f 68f
5:00 10 13 mph 1019.3mb 56f 68f
4:54 13 14 mph 1019.3mb 56f 67f
4:48 13
mph
1019.3mb 55f 68f
4:42 10 13 mph 1019.4mb 56f 69f
4:36 10 11 mph 1019.5mb 55f 69f
4:30 10 13 mph 1019.7mb 55f 69f
4:24 11 13 mph 1019.7mb 57f 68f
4:18 10 11 mph 1019.7mb 57f 68f
4:12 10 13 mph 1019.9mb 58f 68f
4:06 11 13 mph 1019.7mb 58f 67f
4:00 11 13 mph 1019.8mb 58f 67f
3:54 13 14 mph 1019.8mb 58f 67f
3:48 13 14 mph 1019.9mb 57f 67f
3:42 9 14 mph 1019.9mb 58f 67f
3:36 9 11 mph 1020mb 58f 66f
3:30 10 11 mph 1020.1mb 58f 66f
3:24 10 11 mph 1020.1mb 58f 66f
3:18 10 11 mph 1020mb 58f 67f
3:12 9 11 mph 1020mb 58f 67f
3:06 9
mph
1020mb 58f 67f
3:00 10 11 mph 1020.1mb 58f 67f
2:54 10 11 mph 1020.2mb 57f 67f
2:48 10 11 mph 1020.4mb 58f 67f
2:42 10 11 mph 1020.4mb 58f 66f
2:36 10 13 mph 1020.4mb 58f 66f
2:30 9 11 mph 1020.4mb 59f 65f
2:24 11 14 mph 1020.4mb 58f 66f
2:18 9 13 mph 1020.4mb 57f 66f
2:12 10 11 mph 1020.5mb 56f 67f
2:06 11 13 mph 1020.5mb 57f 67f
2:00 14
mph
1020.5mb 58f 67f
1:54 11 14 mph 1020.6mb 58f 66f
1:48 11 14 mph 1020.7mb 59f 66f
1:42 11 14 mph 1020.7mb 60f 66f
1:36 13 16 mph 1020.6mb 59f 66f
1:30 14 15 mph 1020.6mb 60f 67f
1:24 13 15 mph 1020.7mb 60f 66f
1:18 8 14 mph 1020.7mb 59f 67f
1:12 7 9 mph 1020.8mb 60f 69f
1:06 10 13 mph 1020.8mb 60f 69f
1:00 10 14 mph 1020.9mb 59f 68f
12:54 9 11 mph 1020.8mb 60f 69f
12:48 9 11 mph 1020.9mb 60f 69f
12:42 8 13 mph 1020.9mb 60f 69f
12:36 9 10 mph 1021mb 59f 69f
12:30 6 11 mph 1021.1mb 59f 69f
12:24 6 9 mph 1021.3mb 60f 69f
12:18  -  mph 1021.4mb 60f 69f
12:12  -  mph 1021.5mb 60f 68f
12:06  -  mph 1021.5mb 60f 68f
12:00 6 8 mph 1021.6mb 60f 67f
11:54 8 9 mph 1021.6mb 60f 67f
11:48 6 9 mph 1021.8mb 59f 66f
11:42 7 9 mph 1021.8mb 58f 66f
11:36 9 11 mph 1021.9mb 58f 66f
11:30 8 9 mph 1021.8mb 59f 66f
11:24 8
mph
1021.7mb 58f 66f
11:18 7 8 mph 1021.7mb 58f 65f
11:12 7 8 mph 1021.7mb 57f 64f
11:06 6 8 mph 1021.6mb 58f 64f
11:00 7 9 mph 1021.6mb 57f 64f
10:54 7 10 mph 1021.6mb 56f 65f
10:48 7 10 mph 1021.6mb 56f 64f
10:42 6 8 mph 1021.6mb 56f 64f
10:36 6 9 mph 1021.7mb 55f 64f
10:30 9 10 mph 1021.8mb 56f 64f
10:24 8 9 mph 1021.7mb 56f 63f
10:18 9 10 mph 1021.7mb 56f 63f
10:12 9 10 mph 1021.6mb 56f 64f
10:06 9
mph
1021.4mb 57f 64f
10:00 9 10 mph 1021.5mb 57f 64f
9:54 8 10 mph 1021.6mb 56f 64f
9:48 9
mph
1021.7mb 56f 64f
9:42 8 11 mph 1021.6mb 56f 64f
9:36 8 9 mph 1021.6mb 56f 65f
9:30 7 9 mph 1021.6mb 57f 65f
9:24 7 8 mph 1021.6mb 57f 64f
9:18 6 8 mph 1021.6mb 56f 64f
9:12 6 9 mph 1021.7mb 56f 64f
9:06 9
mph
1021.8mb 56f 64f
9:00 9
mph
1021.8mb 55f 63f
8:54 8 9 mph 1021.8mb 56f 63f
8:48 6 7 mph 1021.8mb 55f 63f
8:42 7
mph
1021.7mb 55f 64f
8:36 8 9 mph 1021.8mb 56f 64f
8:30 8 9 mph 1021.7mb 55f 63f
8:24 7 9 mph 1021.6mb 56f 63f
8:18 7 8 mph 1021.6mb 54f 63f
8:12 6 7 mph 1021.6mb 55f 63f
8:06 7
mph
1021.5mb 54f 63f
8:00 6 7 mph 1021.6mb 55f 62f
7:54 7
mph
1021.7mb 54f 62f
7:48 7 8 mph 1021.7mb 54f 62f
7:42 7 9 mph 1021.7mb 54f 62f
7:36 7
mph
1021.5mb 54f 62f
7:30 7 8 mph 1021.3mb 54f 62f
7:24 8 9 mph 1021.4mb 54f 61f
7:18 7 9 mph 1021.5mb 54f 61f
7:12 7 9 mph 1021.5mb 54f 61f
7:06 7 9 mph 1021.4mb 54f 62f
7:00 7 8 mph 1021.4mb 55f 62f
6:54 8
mph
1021.3mb 55f 61f
6:48 8 9 mph 1021.4mb 55f 61f
6:42 5 9 mph 1021.3mb 55f 61f
6:36 5 7 mph 1021.2mb 55f 62f
6:30 5 6 mph 1021.1mb - 62f
6:24 5 6 mph 1021.1mb - 62f
6:18 6
mph
1021mb 55f 62f
6:12 6 7 mph 1021mb 55f 62f
6:06 6 7 mph 1020.9mb 56f 62f
6:00 5 6 mph 1020.8mb 55f 62f
5:54 5 6 mph 1020.7mb 55f 62f
5:48 5 6 mph 1020.7mb 55f 62f
5:42 5 6 mph 1020.6mb 55f 62f
5:36 3 5 mph 1020.7mb 55f 61f
5:30 3 5 mph 1020.7mb 55f 62f
5:24 3 6 mph 1020.7mb 56f 62f
5:18 5 6 mph 1020.6mb 56f 62f
5:12 3 5 mph 1020.5mb 56f 62f
5:06 3 5 mph 1020.5mb 56f 62f
5:00 5 6 mph 1020.5mb 57f 62f
4:54 6
mph
1020.5mb 58f 62f
4:48 6 7 mph 1020.4mb 58f 62f
4:42 6 7 mph 1020.4mb 57f 62f
4:36 6 7 mph 1020.4mb 58f 62f
4:30 5 7 mph 1020.4mb 58f 62f
4:24 6 7 mph 1020.5mb 58f 62f
4:18 6 7 mph 1020.5mb 58f 63f
4:12 6 7 mph 1020.4mb 58f 63f
4:06 7 8 mph 1020.4mb 58f 63f
4:00 7 9 mph 1020.5mb 57f 63f
3:54 6 8 mph 1020.5mb 57f 64f
3:48 5 8 mph 1020.4mb 57f 64f
3:42 6 8 mph 1020.3mb 56f 64f
3:36 6 8 mph 1020.3mb 56f 64f
3:30 6 9 mph 1020.3mb 56f 64f
3:24 7 10 mph 1020.4mb 56f 64f
3:18 7 9 mph - 57f 65f
3:12 6 11 mph - 57f 64f
3:06 7 9 mph - 58f 64f
3:00 6 9 mph 1020.3mb 58f 64f
2:54 3 6 mph 1020.4mb 58f 64f
2:48 3 6 mph 1020.3mb 59f 64f
2:42 3 6 mph 1020.4mb 61f 64f
2:36 3 6 mph 1020.3mb 61f 64f
2:30 5
mph
1020.3mb 61f 64f
2:24 5 6 mph 1020.3mb 60f 64f
2:18 2 6 mph 1020.3mb 60f 64f
2:12 2 6 mph 1020.3mb 61f 64f
2:06 5
mph
1020.3mb 61f 64f
2:00 3 5 mph 1020.3mb 60f 64f
1:54 3 7 mph 1020.1mb 60f 64f
1:48 3 5 mph 1020.1mb 61f 64f
1:42 5 7 mph 1020.2mb 61f 64f
1:36 5 7 mph 1020.2mb 60f 64f
1:30 5 9 mph 1020.3mb 60f 64f
1:24 6 8 mph 1020.2mb 60f 64f
1:18 7 8 mph 1020.2mb 60f 64f
1:12 8 13 mph 1020.3mb 60f 64f
1:06 7 13 mph 1020.3mb 60f 64f
1:00 7 9 mph 1020.4mb 60f 65f
12:54 7 8 mph 1020.3mb 60f 64f
12:48 7 9 mph 1020.4mb 59f 63f
12:42 9 10 mph 1020.5mb 59f 63f
12:36 9 10 mph 1020.6mb 60f 63f
12:30 10
mph
1020.7mb 60f 64f
12:24 10 11 mph 1020.7mb 60f 64f
12:18 6 7 mph 1020.8mb 59f 64f
12:12 6 7 mph 1020.8mb 59f 64f
12:06 6 7 mph 1020.8mb 59f 64f
12:00 6 7 mph 1020.9mb 60f 64f
mié 05/27 11:54 6 7 mph 1021mb 60f 64f
11:48 6 7 mph 1021mb 60f 64f
11:42 6 7 mph 1020.9mb 59f 64f
11:36 7 8 mph 1020.9mb 59f 64f
11:30 7 8 mph 1020.9mb 59f 64f
11:24 5 6 mph 1020.9mb 59f 64f
11:18 5 6 mph 1021mb 59f 64f
11:12 5
mph
1021mb 59f 63f
11:06 5 6 mph 1021.2mb 59f 63f
11:00 5 6 mph 1021.1mb 59f 63f
10:54 5 6 mph 1021.1mb 59f 64f
10:48 3 6 mph 1021mb 58f 64f
10:42 5
mph
1021mb 58f 63f
10:36 6
mph
1021.1mb 58f 64f
10:30 6 8 mph 1021.1mb 58f 64f
10:24 6 8 mph 1021.1mb 57f 64f
10:18 7
mph
1021.2mb 58f 64f
10:12 7 8 mph 1021.3mb 58f 64f
10:06 8 10 mph 1021.4mb 57f 64f
10:00 8 9 mph 1021.3mb 58f 64f
9:54 7 10 mph 1021.2mb 58f 64f
9:48 7 8 mph 1021.4mb 58f 64f
9:42 8 9 mph 1021.4mb 58f 65f
9:36 7 9 mph 1021.3mb 58f 64f
9:30 7 9 mph 1021.3mb 58f 66f
9:24 6 9 mph 1021.3mb 58f 65f
9:18 6 10 mph 1021.4mb 58f 66f
9:12 5 7 mph 1021.5mb 58f 66f
9:06 5 8 mph 1021.5mb 59f 66f
9:00 6 8 mph 1021.5mb 59f 66f
8:54 6 9 mph 1021.5mb 58f 67f
8:48 6 7 mph 1021.6mb 59f 66f
8:42 6 7 mph 1021.5mb 58f 66f
8:36 6 11 mph 1021.4mb 58f 67f
8:30 7 8 mph 1021.5mb 58f 67f
8:24 8 10 mph 1021.3mb 58f 67f
8:18 7 10 mph 1021.3mb 58f 67f
8:12 7 11 mph 1021.5mb 59f 67f
8:06 10 11 mph 1021.5mb 58f 67f
8:00 9 16 mph 1021.4mb 58f 67f
7:54 9 13 mph 1021.2mb 57f 67f
7:48 9 11 mph 1021.3mb 57f 68f
7:42 9 13 mph 1021.3mb 57f 68f
7:36 8 13 mph 1021.3mb 58f 68f
7:30 8 13 mph 1021.3mb 58f 68f
7:24 11 15 mph 1021.4mb 57f 68f
7:18 10 13 mph 1021.5mb 57f 68f
7:12 8 16 mph 1021.3mb 57f 68f
7:06 10 14 mph 1021.1mb 59f 68f
7:00 11 18 mph 1021mb 59f 69f
6:54 9 18 mph 1020.9mb 59f 69f
6:48 11 15 mph 1020.7mb 58f 68f
6:00 15 23 mph 1020.6mb 57f 69f
5:54 14 21 mph 1020.6mb 58f 68f
5:48 10 18 mph 1020.5mb 58f 69f
5:30 9 16 mph 1020.7mb 59f 69f
5:24 14 17 mph 1020.7mb 59f 70f
5:18 14 17 mph 1021mb 59f 69f
5:12 10 15 mph 1021mb 58f 70f
5:06 14 20 mph 1020.9mb 55f 70f
5:00 15 18 mph 1020.9mb 56f 70f
4:54 15 18 mph 1020.9mb 56f 71f
4:48 15 21 mph 1020.9mb 56f 71f
4:42 13 22 mph 1020.8mb 57f 71f
4:36 16 17 mph 1020.7mb 57f 71f
4:30 16 18 mph 1020.6mb 58f 70f
4:24 13 21 mph 1020.5mb 57f 70f
4:18 13 22 mph 1020.6mb 57f 70f
4:12 14 21 mph 1020.7mb 57f 70f
4:06 13 20 mph 1020.7mb 56f 69f
4:00 13 17 mph 1020.7mb 55f 69f
3:54 11 18 mph 1020.7mb 55f 69f
3:48 11 17 mph 1020.8mb 55f 70f
3:42 13 17 mph 1020.8mb 56f 70f
3:36 10 16 mph 1020.9mb 56f 70f
3:30 10 15 mph 1020.9mb 56f 70f
3:24 10 18 mph 1020.9mb 55f 70f
3:18 10 14 mph 1021mb 56f 70f
3:12 9 15 mph 1021mb 57f 70f
3:06 10 14 mph 1021.1mb 58f 69f
3:00 10 14 mph 1021.2mb 58f 69f
2:54 11 14 mph 1021.2mb 58f 67f
2:48 10 14 mph 1021.2mb 57f 66f
2:42 10 14 mph 1021.2mb 57f 66f
2:36 9 11 mph 1021.2mb 57f 67f
2:30 8 11 mph 1021.1mb 56f 68f
2:24 8 13 mph 1021.1mb 56f 66f
2:18 10 11 mph 1021.2mb 56f 65f
2:12 10 11 mph 1021.3mb 56f 65f
2:06 10 13 mph 1021.3mb 56f 65f
2:00 11 14 mph 1021.4mb 57f 65f
1:54 10 11 mph 1021.5mb 56f 66f
1:48 10 11 mph 1021.6mb 56f 66f
1:42 13 14 mph 1021.6mb 57f 66f
1:36 10 14 mph 1021.7mb 59f 66f
1:30 10 13 mph 1021.7mb 59f 66f
1:24 11 13 mph 1021.8mb 58f 66f
1:18 11 14 mph 1021.8mb 58f 66f
1:12 11 14 mph 1021.8mb 58f 66f
1:06 13 15 mph 1021.9mb 58f 65f
1:00 11 14 mph 1022mb 59f 65f
12:54 10 14 mph 1022.1mb 59f 65f
12:48 10 13 mph 1022.1mb 59f 65f
12:42 11 14 mph 1022.1mb 59f 66f
12:36 11 13 mph 1022.3mb 58f 66f
12:30 11 13 mph 1022.3mb 58f 66f
12:24 10 15 mph 1022.4mb 58f 66f
12:18 10 14 mph 1022.4mb 59f 66f
12:12 11 13 mph 1022.4mb 59f 66f
12:06 10 13 mph 1022.4mb 58f 65f
12:00 10 14 mph 1022.4mb 59f 65f
11:54 11 14 mph 1022.4mb 59f 65f
11:48 14
mph
1022.3mb 59f 66f
11:42 10 11 mph 1022.3mb 58f 66f
11:36 10 11 mph 1022.4mb 59f 66f
11:30 9 11 mph 1022.4mb 58f 65f
11:24 9 10 mph 1022.4mb 58f 65f
11:18 10 11 mph 1022.4mb 58f 65f
11:12 10 13 mph 1022.4mb 58f 65f
11:06 10 14 mph 1022.4mb 58f 65f
11:00 11 14 mph 1022.3mb 58f 66f
10:54 10 13 mph 1022.3mb 56f 65f
10:48 10 11 mph 1022.3mb 57f 65f
10:42 10 13 mph 1022.2mb 57f 66f
10:36 9 13 mph 1022.1mb 57f 66f
10:30 8 13 mph 1022mb 57f 66f
10:24 9 11 mph 1022mb 56f 66f
10:18 9 13 mph 1022.1mb 57f 67f
10:12 7 9 mph 1022.1mb 57f 66f
10:06 8 11 mph 1022.2mb 57f 66f
10:00 8 13 mph 1022.2mb 57f 65f
9:54 10
mph
1022.1mb 56f 65f
9:48 10 11 mph 1022mb 55f 65f
9:42 9 11 mph 1022mb 55f 65f
9:36 10 11 mph 1022.1mb 55f 65f
9:30 8 14 mph 1022.1mb 55f 66f
9:24 7 11 mph 1022.2mb 55f 66f
9:18 7 13 mph 1022.2mb 54f 66f
9:12 7 10 mph 1022.2mb 54f 66f
9:06 8 11 mph 1022.3mb 54f 66f
9:00 9 11 mph 1022.3mb 55f 65f
8:54 9 13 mph 1022.3mb 55f 65f
8:48 8 11 mph 1022.3mb 54f 64f
8:42 10 11 mph 1022.4mb 55f 64f
8:36 10 14 mph 1022.4mb 55f 63f
8:30 10 11 mph 1022.4mb 55f 63f
8:24 10 13 mph 1022.3mb 55f 63f
8:18 9 11 mph 1022.3mb 55f 63f
8:12 9 10 mph 1022.3mb 55f 63f
8:06 10 11 mph 1022.3mb 55f 63f
8:00 8 9 mph 1022.2mb 54f 63f
7:54 8 9 mph 1022.2mb 55f 63f
7:48 8
mph
1022.1mb 53f 63f
7:42 8 9 mph 1022.1mb 53f 63f
7:36 8 9 mph 1022.1mb 54f 63f
7:30 7 8 mph 1022.1mb 53f 63f
7:24 7 13 mph 1022.1mb 53f 63f
7:18 5 7 mph 1022mb 53f 64f
7:12 6 8 mph 1022mb 54f 64f
7:06 7 8 mph 1022mb 54f 64f
7:00 7 9 mph 1022mb 53f 62f
6:54 7 9 mph 1022mb 53f 63f
6:48 7 8 mph 1022mb 53f 63f
6:42 8
mph
1022mb 54f 62f
6:36 7 8 mph 1022mb 54f 62f
6:30 7 8 mph 1022mb 55f 62f
6:24 7 8 mph 1022mb 55f 62f
6:18 5 6 mph 1022mb 55f 63f
6:12 5 6 mph 1022mb 55f 63f
6:06 5 7 mph 1022.1mb 54f 63f
6:00 6 7 mph 1022mb 54f 63f
5:54 6 7 mph 1022mb 55f 63f
5:48 5 6 mph 1021.9mb 56f 63f
5:42 7
mph
- - -
5:36 7 8 mph - - -
5:30 7 9 mph 1021.8mb 57f 62f
5:24 8 9 mph 1021.8mb 58f 62f
5:18  -  mph 1021.7mb 57f 62f
5:12  -  mph 1021.6mb 55f 63f
5:06  -  mph 1021.6mb 54f 63f
5:00 6 7 mph 1021.5mb 54f 63f
4:54 6 7 mph 1021.4mb 54f 63f
4:48 7
mph
1021.4mb 54f 63f
4:42 6
mph
1021.5mb 55f 63f
4:36 6 7 mph 1021.5mb 56f 63f
4:30 7
mph
1021.4mb 55f 62f
4:24 7
mph
1021.4mb 55f 63f
4:18 7 9 mph 1021.4mb 55f 63f
4:12 7 8 mph 1021.3mb 54f 63f
4:06 7
mph
1021.3mb 54f 63f
4:00 7 9 mph 1021.3mb 55f 63f
3:54 8 9 mph 1021.3mb 55f 64f
3:48 6 8 mph 1021.3mb 55f 65f
3:42 7 8 mph 1021.3mb 55f 65f
3:36 6 9 mph 1021.4mb 55f 65f
3:30  -  mph 1021.5mb 55f -
3:24  -  mph 1021.5mb - -
3:18  -  mph - 55f -
3:12 7 9 mph 1021.6mb 55f -
3:06 8 9 mph 1021.6mb 55f -
3:00 6 8 mph 1021.5mb 56f -
2:54 7 8 mph 1021.5mb 56f -
2:48 7 10 mph 1021.6mb - -
2:42 7 8 mph 1021.6mb - -
2:36 6 8 mph 1021.6mb - -
2:30 6 8 mph 1021.6mb 59f 65f
2:24 6 9 mph 1021.6mb 58f 66f
2:18 7 10 mph 1021.6mb 59f 66f
2:12 7 11 mph 1021.7mb 59f 66f
2:06 6 10 mph 1021.7mb 59f 66f
2:00  -  mph - - 66f
1:54  -  mph - - 65f
1:48 6 7 mph 1021.7mb 59f 65f
1:42 2 7 mph 1021.7mb 59f 65f
1:36 5 6 mph 1021.8mb 58f 64f
1:30 6
mph
1021.8mb 58f 64f
1:24 3 6 mph 1021.8mb 58f 64f
1:18 3 5 mph 1021.9mb 57f 64f
1:12 3 5 mph 1022mb 57f 63f
1:06 5 6 mph 1021.9mb 58f 63f
1:00 6
mph
1021.9mb 60f 63f
12:54 6
mph
1021.9mb 60f 63f
12:48 6 7 mph 1021.9mb 59f 63f
12:42 6 7 mph 1021.9mb 59f 63f
12:36 5 6 mph 1022mb 59f 63f
12:30 3 5 mph 1022mb 59f 63f
12:24 2 3 mph 1022mb 58f 63f
12:18 3 5 mph 1022mb 58f 63f
12:12 5 6 mph 1021.9mb 58f 63f
12:06 6
mph
1021.9mb 59f 63f
12:00 5 6 mph 1022mb 59f 63f
mar 05/26 11:54 5
mph
1022mb 58f 63f
11:48 5 6 mph 1022mb 59f 63f
11:42 5
mph
1022.1mb 59f 63f
11:36 6
mph
1022.1mb 59f 63f
11:30 6 7 mph 1022mb 59f 63f
11:24 5 7 mph 1022.1mb 59f 63f
11:18 5 6 mph 1022.1mb 59f 63f
11:12 5 6 mph 1022.1mb 59f 63f
11:06 7
mph
1022.1mb 59f 63f
11:00 7 8 mph 1022mb 59f 63f
10:54 6 7 mph 1021.9mb 59f 63f
10:48 7
mph
1021.9mb 58f 63f
10:42 7 8 mph 1021.9mb 58f 64f
10:36 7 8 mph 1021.8mb 58f 64f
10:30 6 8 mph 1021.8mb 58f 64f
10:24 7 8 mph 1021.9mb 58f 64f
10:18 7 8 mph 1021.9mb 59f 64f
10:12 8 9 mph 1021.9mb 59f 64f
10:06 8 10 mph 1021.8mb 59f 64f
10:00 8 9 mph 1021.8mb 58f 64f
9:54 7 8 mph 1021.8mb 57f 64f
9:48 7 8 mph 1021.8mb 56f 65f
9:42 7 8 mph 1021.7mb 56f 64f
9:36 6 7 mph 1021.7mb 56f 64f
9:30 7 9 mph 1021.6mb 57f 65f
9:24 7 8 mph 1021.6mb 57f 64f
9:18 7 8 mph 1021.5mb 56f 64f
9:12 7 9 mph 1021.4mb 57f 64f
9:06 8 9 mph 1021.4mb 57f 64f
9:00 9 10 mph 1021.4mb 56f 65f
8:54 8 10 mph 1021.4mb 56f 65f
8:48 7 9 mph 1021.4mb 56f 66f
8:42 6 8 mph 1021.3mb 56f 66f
8:36 5 8 mph 1021.4mb 56f 67f
8:30 6 7 mph 1021.3mb 57f 68f
8:24 7 9 mph 1021.3mb 56f 68f
8:18 5 7 mph 1021.2mb 56f 68f
8:12 6 8 mph 1021.2mb 57f 68f
8:06 5 8 mph 1021.2mb 57f 68f
8:00 6 8 mph 1021.2mb 58f 68f
7:54 6 8 mph 1021.2mb 58f 68f
7:48 6 8 mph 1021.3mb 57f 69f
7:42 6 8 mph 1021.3mb 58f 69f
7:36 6 9 mph 1021.2mb 58f 69f
7:30 7 9 mph 1021.2mb 57f 69f
7:24 8 10 mph 1021.2mb 56f 69f
7:18 7 9 mph 1021.2mb 56f 69f
7:12 10 13 mph 1021.2mb 56f 69f
7:06 9 14 mph 1021.2mb 55f 69f
7:00 11 18 mph 1021.4mb 55f 68f
6:54 9 15 mph 1021.4mb 55f 69f
6:48 8 11 mph 1021.5mb 55f 69f
6:42 13 14 mph 1021.5mb 55f 69f
6:36 9 16 mph 1021.5mb 55f 69f
6:30 9 13 mph 1021.5mb 56f 69f
6:24 10 16 mph 1021.5mb 56f 70f
6:18 9 15 mph 1021.5mb 56f 70f
6:12 8 14 mph 1021.4mb 56f 70f
6:06 7 15 mph 1021.5mb 56f 70f
6:00 13 14 mph 1021.5mb 56f 70f
5:54 13 16 mph 1021.5mb 57f 69f
5:48 11 14 mph 1021.4mb 57f 69f
5:42 13 16 mph 1021.4mb 57f 70f
5:36 10 16 mph 1021.4mb 58f 70f
5:30 13 14 mph 1021.3mb 58f 67f
5:24 13 15 mph 1021.3mb 59f 67f
5:18 14 16 mph 1021.3mb 58f 67f
5:12 14 15 mph 1021.3mb 59f 67f
5:06 11 15 mph 1021.3mb 59f 71f
5:00 11 14 mph 1021.3mb 58f 71f
4:54 13 15 mph 1021.3mb 58f 71f
4:48 11 18 mph 1021.3mb 59f 72f
4:42 11 14 mph 1021.3mb 58f 71f
4:36 14 17 mph 1021.4mb 57f 71f
4:30 11 16 mph 1021.3mb 56f 72f
4:24 13 15 mph 1021.4mb 57f 72f
4:18 11 17 mph 1021.4mb 56f 72f
4:12 11 14 mph 1021.4mb 57f 71f
4:06 11 15 mph 1021.4mb 56f 71f
4:00 10 15 mph 1021.4mb 58f 71f
3:54 10 14 mph 1021.4mb 58f 70f
3:48 15 17 mph 1021.4mb 56f 70f
3:42 14 17 mph 1021.5mb 56f 72f
3:36 11 15 mph 1021.5mb 56f 71f
3:30 13 14 mph 1021.5mb 57f 69f
3:24 14 15 mph 1021.6mb 56f 69f
3:18 13 14 mph 1021.6mb 56f 68f
3:12 13 15 mph 1021.7mb 56f 68f
3:06 13 14 mph 1021.8mb 56f 68f
3:00 13 15 mph 1021.9mb 56f 67f
2:54 13 15 mph 1021.9mb 56f 67f
2:48 13 15 mph 1022mb 57f 68f
2:42 14 15 mph 1021.9mb 57f 68f
2:36 14 16 mph 1021.9mb 56f 68f
2:30 14 15 mph 1022mb 56f 68f
2:24 13 14 mph 1022.1mb 56f 69f
2:18 13 14 mph 1022mb 56f 69f
2:12 13 14 mph 1022mb 56f 69f
2:06 13 14 mph 1022mb 56f 69f
2:00 13 14 mph 1022.1mb 56f 68f
1:54 14
mph
1022.2mb 56f 68f
1:48 13 14 mph 1022.1mb 56f 69f
1:30 11 13 mph 1022.1mb 56f 69f
1:24 11
mph
1022.2mb 56f 70f
1:18 10 11 mph 1022.3mb 56f 71f
1:12 11
mph
1022.2mb 55f 70f
1:06 11 13 mph 1022.2mb 56f 70f
1:00 11 13 mph 1022.2mb 57f 70f
12:54 13 14 mph 1022.2mb 57f 70f
12:48 13 14 mph 1022.2mb 57f 69f
12:42 10 14 mph 1022.1mb 57f 69f
12:36 13 14 mph 1022.2mb 57f 69f
12:30 13
mph
1022.1mb 56f 69f
12:24 10 13 mph 1022.2mb 57f 69f
12:18 9 13 mph 1022.3mb 57f 69f
12:12 9 10 mph 1022.4mb 57f 69f
12:06 9 10 mph 1022.4mb 57f 70f
12:00 10 11 mph 1022.4mb 58f 71f
11:54 10 13 mph 1022.3mb 59f 71f
11:48 9 13 mph 1022.4mb 58f 71f
11:42 10 13 mph 1022.4mb 58f 71f
11:36 10 14 mph 1022.5mb 57f 71f
11:30 9 13 mph 1022.5mb 58f 70f
11:24 7 15 mph 1022.6mb 58f 71f
11:18 7 15 mph 1022.5mb 58f 71f
11:12 8 14 mph 1022.5mb 58f 70f
11:06 10 11 mph 1022.6mb 57f 72f
11:00 10 14 mph 1022.6mb 57f 71f
10:54 13
mph
1022.6mb 57f 70f
10:48 7 10 mph 1022.4mb 57f 72f
10:42 11 13 mph 1022.4mb 57f 70f
10:36 11 13 mph 1022.5mb 58f 70f
10:30 8 11 mph 1022.5mb 57f 70f
10:24 8 13 mph 1022.7mb 57f 71f
10:18 8 14 mph 1022.7mb 57f 67f
10:12 8 13 mph 1022.6mb 57f 70f
10:06 8 16 mph 1022.6mb 56f 69f
10:00 13 14 mph 1022.4mb 55f 69f
9:54 7 10 mph 1022.5mb 56f 69f
9:48 7 14 mph 1022.6mb 56f 69f
9:42 9 15 mph 1022.6mb 55f 69f
9:36 13 15 mph 1022.7mb 55f 69f
9:30 6 14 mph 1022.8mb 56f 68f
9:24 6 10 mph 1022.6mb 55f 69f
9:18 7 14 mph 1022.8mb 55f 68f
9:12 7 13 mph 1022.7mb 55f 68f
9:06 7 13 mph 1022.7mb 55f 68f
9:00 7
mph
1022.8mb 54f 67f
8:54 8 10 mph 1022.7mb 54f 67f
8:48 6 10 mph 1022.8mb 54f 66f
8:42 7 8 mph 1022.9mb 55f 66f
8:36 10 13 mph 1022.9mb 54f 66f
8:30 7 13 mph 1022.9mb 54f 65f
8:24 8 10 mph 1022.8mb 55f 64f
8:18 8 10 mph 1023mb 54f 64f
8:12 8 13 mph 1022.9mb 55f 64f
8:06 10 13 mph 1022.8mb 54f 64f
8:00 10
mph
1022.8mb 54f 63f
7:54 7 9 mph 1022.9mb 53f 63f
7:48 3 8 mph 1022.8mb 54f 62f
7:42 3 7 mph 1023mb 54f 62f
7:36 6 7 mph 1023mb 54f 62f
7:30 7
mph
1022.9mb 55f 62f
7:24 6 7 mph 1022.9mb 54f 62f
7:18 6 8 mph 1022.9mb 54f 62f
7:12 7 8 mph 1022.9mb 54f 61f
7:06 7 8 mph 1022.9mb 55f 61f
7:00 7 8 mph 1022.8mb 55f 60f
6:54 8 9 mph 1022.7mb 54f 60f
6:48 8 9 mph 1022.6mb 53f 60f
6:42 8 9 mph 1022.6mb 55f 60f
6:36 8 9 mph 1022.5mb 54f 60f
6:30 8 9 mph 1022.5mb 53f 60f
6:24 8 11 mph 1022.4mb 54f 61f
6:18 8 10 mph 1022.4mb 53f 61f
6:12 6 8 mph 1022.5mb 53f 61f
6:06 7 9 mph 1022.5mb 53f 61f
6:00 6 8 mph 1022.5mb 54f 61f
5:54 6
mph
1022.5mb 53f 61f
5:48 7 8 mph 1022.3mb 53f 61f
5:42 7 8 mph 1022.3mb 53f 60f
5:36 7 8 mph 1022.1mb 53f 60f
5:30 7 9 mph 1022.2mb 55f 60f
5:24 7 9 mph 1022mb 55f 60f
5:18 7 9 mph 1022.1mb 55f 60f
5:12 8 9 mph 1022.1mb 55f 60f
5:06 7 10 mph 1022.1mb 56f 60f
5:00 7 9 mph 1022.1mb 56f 61f
4:54 6 10 mph 1022.1mb 55f 61f
4:48 6 7 mph 1022.1mb 56f 61f
4:42 5 7 mph 1022.1mb 56f 61f
4:36 6 7 mph 1022.1mb 57f 61f
4:30 7 9 mph 1022mb 56f 62f
4:24 7 9 mph 1022.1mb 56f 62f
4:18 7 9 mph 1022mb 56f 62f
4:12 8
mph
1022mb 56f 62f
4:06 8 10 mph 1022mb 56f 62f
4:00 7 14 mph 1022mb 56f 62f
3:54 7 10 mph 1021.9mb 57f 62f
3:48 7 10 mph 1022.1mb 57f 62f
3:42 7 13 mph 1022.1mb 56f 63f
3:36 7 13 mph 1022.2mb 57f 63f
3:30 6 9 mph 1022.1mb 57f 63f
3:24 6 8 mph 1022.1mb 56f 63f
3:18 6 8 mph 1022.2mb 56f 63f
3:12 6 8 mph 1022.2mb 55f 63f
3:06 5 7 mph 1022.2mb 56f 63f
3:00 5 7 mph 1022.2mb 56f 63f
2:54 5 10 mph 1022.2mb 56f 63f
2:48 6 9 mph - 57f 63f
2:42 6 9 mph - 57f 63f
2:36 5 7 mph - 57f 63f
2:30 5 8 mph 1022.1mb 57f 63f
2:24 6
mph
1022.1mb 57f 63f
2:18 6 10 mph 1022.1mb 57f 63f
2:12 9 15 mph 1022mb 57f 63f
2:06 7 15 mph 1022.1mb 57f 63f
2:00 7 11 mph 1022.1mb 57f 63f
1:54 8 11 mph 1022.1mb 57f 63f
1:48 8 11 mph 1022mb 57f 63f
1:42 9 15 mph 1022.1mb 57f 63f
1:36 8 10 mph 1022.1mb 57f 63f
1:30 8 11 mph 1022.1mb 57f 64f
1:24 8 10 mph 1022.2mb 56f 64f
1:18 8 15 mph 1022.2mb 55f 64f
1:12 10 14 mph 1022.2mb 55f 64f
1:06 9 11 mph 1022.3mb 55f 64f
1:00 10 14 mph 1022.3mb 55f 64f
12:54 10 14 mph 1022.4mb 54f 65f
12:48 7 13 mph 1022.5mb 54f 65f
12:42 8 15 mph 1022.5mb 55f 65f
12:36 10 14 mph 1022.5mb 54f 65f
12:30 9 16 mph 1022.6mb 55f 65f
12:24 9 13 mph 1022.6mb 57f 65f
12:18 7 13 mph 1022.5mb 57f 65f
12:12 10 16 mph 1022.5mb 57f 65f
12:06 11 16 mph 1022.6mb 58f 64f
12:00 9 13 mph 1022.6mb 57f 65f
lun 05/25 11:54 9 13 mph 1022.6mb 58f 65f
11:48 10 16 mph 1022.6mb 58f 65f
11:42 9 16 mph 1022.6mb 57f 65f
11:36 9 13 mph 1022.6mb 58f 66f
11:30 11 15 mph 1022.5mb 58f 66f
11:24 8 15 mph 1022.4mb 58f 66f
11:18 13 17 mph 1022.3mb 58f 66f
11:12 13 14 mph 1022.3mb 57f 66f
11:06 11 22 mph 1022.3mb 58f 66f
11:00 11 16 mph 1022.2mb 58f 66f
10:54 9 17 mph 1022.1mb 58f 66f
10:48 10 15 mph 1022.2mb 58f 66f
10:42 9 15 mph 1022.1mb 58f 66f
10:36 11 16 mph 1022.1mb 58f 66f
10:30 10 15 mph 1022.1mb 57f 66f
10:24 9 15 mph 1022.2mb 57f 66f
10:18 9 16 mph 1022.2mb 58f 66f
10:12 13 14 mph 1022.3mb 57f 66f
10:06 8 11 mph 1022.3mb 57f 66f
10:00 7
mph
1022.3mb 57f 66f
9:54 8 10 mph 1022.4mb 58f 66f
9:48 6 9 mph 1022.5mb 56f 66f
9:42 6 9 mph 1022.4mb 56f 66f
9:36 8 14 mph 1022.3mb 57f 66f
9:30 8 11 mph 1022.3mb 56f 66f
9:24 8 11 mph 1022.2mb 56f 66f
9:18 7 10 mph 1022.3mb 57f 66f
9:12 7 10 mph 1022.3mb 56f 66f
9:06 6 10 mph 1022.2mb 55f 66f
9:00 6 7 mph 1022.1mb 55f 65f
8:54 6 7 mph 1022.1mb 55f 64f
8:48 6 7 mph 1022.1mb 53f 64f
8:42 6 8 mph 1022.1mb 53f 64f
8:36 7 8 mph 1022.1mb 53f 64f
8:30 6 10 mph 1022.1mb 54f 65f
8:24 9 11 mph 1022.1mb 54f 65f
8:18 8 10 mph 1022.1mb 53f 65f
8:12 8 9 mph 1022mb 53f 64f
8:06 8 9 mph 1022.1mb 54f 63f
8:00 9
mph
1022mb 54f 63f
7:54 9 11 mph 1022.1mb 54f 64f
7:48 10 11 mph 1022.2mb 52f 64f
7:42 10
mph
1022.2mb 53f 63f
7:36 9 10 mph 1022.2mb 53f 63f
7:30 9 11 mph 1022.2mb 54f 63f
7:24 11 13 mph 1022.2mb 54f 63f
7:18 11
mph
1022.1mb 55f 63f
7:12 10 11 mph 1022.3mb 55f 64f
7:06 9 10 mph 1022.2mb 55f 64f
7:00 10 13 mph 1022.1mb 55f 64f
6:54 9 11 mph 1022.2mb 56f 64f
6:48 9 10 mph 1022.3mb 56f 64f
6:42 9 10 mph 1022.3mb 56f 65f
6:36 10 11 mph 1022.2mb 55f 65f
6:30 9 11 mph 1022.3mb 56f 65f
6:24 9 10 mph 1022.3mb 56f 65f
6:18 9 10 mph 1022.3mb 55f 65f
6:12 8 9 mph 1022.3mb 54f 66f
6:06 10
mph
1022.3mb 54f 66f
6:00 10
mph
1022.2mb 56f 66f
5:54 9 11 mph 1022.3mb 55f 66f
5:48 10 11 mph 1022.2mb 53f 67f
5:42 11 13 mph 1022.2mb 53f 66f
5:36 11
mph
1022.2mb 53f 66f
5:30 10 11 mph 1022.4mb 54f 66f
5:24 9 11 mph 1022.3mb 54f 66f
5:18 7 10 mph 1022.4mb 55f 66f
5:12 8 9 mph 1022.5mb 55f 64f
5:06 8 10 mph 1022.5mb 55f 64f
5:00 9
mph
1022.5mb 55f 64f
4:54 11 13 mph 1022.4mb 55f 65f
4:48 11 14 mph 1022.4mb 55f 64f
4:42 13 14 mph 1022.4mb 55f 65f
4:36 13
mph
1022.4mb 55f 66f
4:30 11 13 mph 1022.3mb 54f 67f
4:24 11 13 mph 1022.3mb 56f 67f
4:18 11 14 mph 1022.3mb 56f 66f
4:12 11 14 mph 1022.4mb 56f 66f
4:06 11 13 mph 1022.5mb 55f 66f
4:00 11 13 mph 1022.6mb 53f 66f
3:54 11
mph
1022.7mb 54f 66f
3:48 10 11 mph 1022.8mb 55f 65f
3:42 10 11 mph 1022.9mb 53f 64f
3:36 10 11 mph 1022.9mb 56f 64f
3:30 10 11 mph 1022.8mb 56f 64f
3:24 10 11 mph 1022.8mb 55f 64f
3:18 11 13 mph 1022.9mb 54f 63f
3:12 11 14 mph 1023mb 56f 63f
3:06 11 14 mph 1023mb 53f 63f
3:00 11 14 mph 1023mb 55f 63f
2:54 14 15 mph 1023mb 54f 64f
2:48 14 15 mph 1023.1mb 53f 63f
2:42 11 16 mph 1023.1mb 54f 62f
2:36 11 14 mph 1023.1mb 54f 62f
2:30 13 15 mph 1023mb 54f 62f
2:24 14 15 mph 1023mb 54f 62f
2:18 10 15 mph 1023.1mb 55f 62f
2:12 11 13 mph 1023.2mb 54f 62f
2:06 11 14 mph 1023.3mb 54f 63f
2:00 13 14 mph 1023.3mb 54f 64f
1:54 11 14 mph 1023.4mb 54f 64f
1:48 11 14 mph 1023.5mb 54f 64f
1:42 10 13 mph 1023.6mb 55f 63f
1:36 10
mph
1023.7mb 55f 64f
1:30 9 10 mph 1023.8mb 55f 64f
1:24 10 11 mph 1024mb 55f 65f
1:18 9 11 mph 1024mb 55f 64f
1:12 10 11 mph 1024mb 55f 63f
1:06 11 13 mph 1024.1mb 55f 62f
1:00 11 13 mph 1024.2mb 56f 63f
12:54 13 14 mph 1024.3mb 55f 62f
12:48 11 14 mph 1024.4mb 55f 62f
12:42 10 13 mph 1024.4mb 55f 62f
12:36 11 13 mph 1024.4mb 55f 62f
12:30 11 13 mph 1024.4mb 55f 62f
12:24 11 14 mph 1024.3mb 53f 62f
12:18 11 14 mph 1024.3mb 53f 62f
12:12 11 14 mph 1024.4mb 53f 61f
12:06 10 13 mph 1024.5mb 52f 61f
12:00 8 10 mph 1024.4mb 52f 62f
11:54 9 11 mph 1024.4mb 53f 62f
11:48 10 13 mph 1024.4mb 53f 62f
11:42 10 11 mph 1024.5mb 54f 61f
11:36 10 11 mph 1024.5mb 55f 64f
11:30 10 11 mph 1024.4mb 55f 65f
11:24 10 13 mph 1024.4mb 56f 65f
11:18 10 11 mph 1024.4mb 56f 64f
11:12 11 13 mph 1024.5mb 56f 64f
11:06 11 13 mph 1024.5mb 56f 64f
11:00 9 11 mph 1024.5mb 56f 64f
10:54 10
mph
1024.6mb 56f 64f
10:48 10
mph
1024.5mb 56f 64f
10:42 8
mph
1024.5mb 56f 65f
10:36 8
mph
1024.5mb 56f 64f
10:30 8 9 mph 1024.6mb 56f 64f
10:24 8 9 mph 1024.7mb 56f 64f
10:18 8 9 mph 1024.6mb 56f 64f
10:12 9
mph
1024.6mb 56f 63f
10:06 8 9 mph 1024.7mb 55f 63f
10:00 7 9 mph 1024.6mb 55f 62f
9:54 7 10 mph 1024.6mb 55f 62f
9:48 9 11 mph 1024.6mb 55f 63f
9:42 8 10 mph 1024.6mb 56f 63f
9:36 7 9 mph 1024.6mb 55f 63f
9:30 8 9 mph 1024.6mb 55f 63f
9:24 8
mph
1024.6mb 55f 63f
9:18 6 7 mph 1024.7mb 55f 64f
9:12 6 7 mph 1024.7mb 55f 64f
9:06 6 7 mph 1024.7mb 55f 63f
9:00 6 8 mph 1024.7mb 54f 64f
8:54 6 7 mph 1024.7mb 55f 64f
8:48 6 7 mph 1024.8mb 54f 63f
8:42 5 7 mph 1024.8mb 54f 63f
8:36 7 9 mph 1024.8mb 55f 63f
8:30 7 8 mph 1024.8mb 55f 63f
8:24 8 9 mph 1024.8mb 55f 62f
8:18 7 8 mph 1024.7mb 55f 62f
8:12 7 8 mph 1024.7mb 54f 62f
8:06 7 8 mph 1024.7mb 54f 61f
8:00 5 6 mph 1024.8mb 53f 62f
7:54 3 5 mph 1024.8mb 54f 61f
7:48 6
mph
1024.8mb 54f 61f
7:42 5 6 mph 1024.7mb 54f 60f
7:36 5 6 mph 1024.7mb 54f 60f
7:30 5 6 mph 1024.7mb 53f 60f
7:24 6
mph
1024.7mb 53f 59f